[[{"header":{"parameterUnit":"m.s-1","parameterCategory":1,"la1":30.2991,"la2":30.254,"lo1":-89.0895,"lo2":-89.0444,"dy":0.0017,"dx":0.0017,"nx":28,"ny":28,"refTime":"2025-06-05T09:00:00:Z","depth":0,"parameterNumber":2,"parameterNumberName":"U-component_of_WINDS"},"data":[0,0,0,0,0,0,0,0,0,0,0,0,0,0,0,0,0,0,0,0,0,0,0,0,0,0,0,0,0,0,0,0,0,0,0,0,0,0,0,0,0,0,0,0,0,0,0,0,0,0,0,0,0,0,0,0,0,0,2.259,2.2591,0,2.2647,2.2648,2.2649,2.2654,2.2654,2.2653,2.2652,2.2714,2.2716,2.2718,0,0,0,0,0,0,0,0,0,0,0,0,0,2.2489,2.249,2.259,2.2591,2.2592,2.2647,2.2648,2.2649,2.2654,2.2654,2.2653,2.2652,2.2713,2.2715,2.2718,0,0,0,0,0,0,0,0,0,0,0,0,0,2.2538,2.2491,2.259,2.2601,2.2603,2.2647,2.2648,2.2649,2.2654,2.2653,2.2653,2.2652,2.2712,2.2715,2.2718,2.2757,0,0,2.2728,2.273,0,0,0,0,0,0,0,0,2.2535,2.2542,2.2599,2.26,2.2602,2.2643,2.2634,2.2685,2.2655,2.2635,2.2652,2.2651,2.2691,2.2696,2.2709,2.276,2.2762,2.2729,2.2731,2.2732,2.2733,0,0,0,0,0,0,0,2.2532,2.2539,2.2613,2.26,2.2602,2.2604,2.261,2.2644,2.2667,2.2637,2.2637,2.2644,2.2692,2.2705,2.271,2.2763,2.2729,2.2732,2.2734,2.2735,2.2847,2.2848,0,0,0,0,0,0,2.2526,2.2536,2.2611,2.2615,2.2566,2.2606,2.2613,2.2631,2.2667,2.2672,2.2644,2.2644,2.27,2.2706,2.2712,2.2759,2.2732,2.2735,2.2737,2.2846,2.2848,2.2849,0,0,0,0,0,0,2.2524,2.2533,2.2609,2.2576,2.2586,2.2609,2.2629,2.2632,2.2646,2.2673,2.2677,2.2654,2.27,2.2708,2.2745,2.2761,2.2737,2.274,2.2845,2.2847,2.2848,2.2852,0,0,0,0,0,0,2.2521,2.2532,2.2546,2.2576,2.2587,2.264,2.263,2.2634,2.2651,2.2651,2.2683,2.2687,2.27,2.274,2.2748,2.2765,2.2742,2.2844,2.2846,2.2848,2.285,2.2853,2.2856,0,0,0,0,0,2.2517,2.2546,2.2547,2.2556,2.2606,2.2641,2.2648,2.266,2.2652,2.2667,2.2684,2.2686,2.2758,2.2744,2.2753,2.2771,2.2843,2.2845,2.2847,2.2849,2.2853,2.2856,0,0,0,0,0,0,2.2518,2.255,2.2551,2.259,2.2613,2.2642,2.2661,2.2664,2.269,2.2688,2.2704,2.2711,2.2748,2.2763,2.2747,2.2809,2.28,2.2804,2.2798,2.2801,2.2804,2.2799,2.2745,0,0,0,0,0,2.2523,2.2548,2.2575,2.2607,2.2618,2.2637,2.2653,2.2661,2.2685,2.2695,2.2715,2.2739,2.2767,2.2785,2.2813,2.2853,2.286,2.287,2.2872,2.2874,2.2878,2.2899,2.2904,2.2856,2.2856,2.2856,0,0,2.2533,2.2553,2.2569,2.2607,2.2626,2.2652,2.2645,2.2674,2.2694,2.27,2.2736,2.2751,2.278,2.2818,2.2836,2.2832,2.2892,2.2877,2.2879,2.2881,2.2902,2.2906,2.291,2.2858,2.2857,2.2857,0,0,2.2564,2.2583,2.2611,2.2629,2.2656,2.2669,2.2676,2.2704,2.2714,2.275,2.2755,2.2779,2.2827,2.2847,2.2863,2.2901,2.2903,2.2909,2.2923,2.2944,2.2948,2.2951,2.2964,2.2968,2.2913,2.2913,2.2913,0,2.2574,2.2613,2.2625,2.2653,2.267,2.2675,2.2704,2.2721,2.2756,2.2768,2.2763,2.2822,2.2841,2.2884,2.2893,2.2906,2.2915,2.2906,2.2946,2.295,2.2953,2.2965,2.297,2.2913,2.2913,2.2913,2.2913,0,2.2623,2.265,2.2669,2.2701,2.2721,2.2749,2.2765,2.2783,2.2789,2.2803,2.2839,2.2863,2.2894,2.2905,2.2912,2.2949,2.2945,2.2943,2.2933,2.2958,2.297,2.2975,2.2914,2.2914,2.2914,2.2914,0,0,2.2657,2.2694,2.2701,2.2716,2.2746,2.2767,2.2796,2.2825,2.284,2.2864,2.2888,2.2928,2.2926,2.2944,2.2953,2.2972,2.2999,2.2967,2.2968,2.2971,2.304,2.3041,2.3046,2.3001,2.3002,2.3003,2.3038,0,2.2691,2.2741,2.2752,2.2795,2.2819,2.2825,2.285,2.2871,2.2884,2.2908,2.2923,2.295,2.2946,2.2956,2.2975,2.2992,2.3013,2.2989,2.3024,2.3025,2.3015,2.3053,2.3054,2.3086,2.3042,2.3043,2.3044,0,2.2738,2.2761,2.2806,2.2832,2.2843,2.2865,2.2892,2.2915,2.2939,2.2948,2.2967,2.2974,2.3004,2.2993,2.3034,2.3018,2.3033,2.3043,2.3045,2.3048,2.3035,2.3056,2.3096,2.3101,2.3051,2.3051,2.305,0,2.2757,2.28,2.2832,2.2845,2.2876,2.2891,2.2905,2.2928,2.2945,2.297,2.2981,2.3009,2.3024,2.3046,2.306,2.3051,2.31,2.309,2.3108,2.3107,2.3117,2.3116,2.3159,2.3128,2.3128,2.3128,2.3128,0,2.2794,2.2821,2.2841,2.2861,2.2891,2.2904,2.2934,2.2948,2.2969,2.2992,2.2999,2.302,2.3038,2.3062,2.3073,2.3105,2.3113,2.312,2.3123,2.3119,2.3118,2.3128,2.3126,2.3129,2.3129,2.3129,2.3128,0,2.282,2.2835,2.287,2.2896,2.2904,2.2925,2.2948,2.2967,2.298,2.3009,2.3016,2.3037,2.3066,2.3082,2.3118,2.3126,2.3161,2.3163,2.3152,2.3153,2.3169,2.3167,2.322,2.3227,2.3192,2.3192,2.3192,0,2.2842,2.2863,2.2891,2.2906,2.292,2.2945,2.2961,2.2975,2.2992,2.3021,2.3037,2.3066,2.3089,2.3134,2.3153,2.318,2.3183,2.3199,2.3187,2.3182,2.3182,2.318,2.3182,2.3201,2.3202,2.3202,2.3202,0,2.288,2.2886,2.2909,2.2935,2.2954,2.2975,2.2997,2.3009,2.3026,2.3045,2.3073,2.3091,2.3127,2.3156,2.3184,2.3199,2.3204,2.3206,2.3211,2.3207,2.32,2.3203,2.3157,2.3204,2.3204,2.3204,2.3204,2.3204,2.2904,2.2923,2.2945,2.297,2.2987,2.3007,2.3026,2.3041,2.3064,2.3094,2.3101,2.313,2.3154,2.3193,2.3208,2.3232,2.3229,2.3237,2.3239,2.3241,2.324,2.3196,2.3238,2.3238,2.3237,2.3237,2.3237,0,2.2941,2.2956,2.2979,2.3008,2.3028,2.3029,2.3052,2.3069,2.3094,2.3116,2.3138,2.317,2.3197,2.3218,2.3245,2.326,2.3263,2.3267,2.3266,2.3269,2.3242,2.3234,2.3264,2.3264,2.3264,2.3264,2.3264,2.3264,2.2963,2.2993,2.3002,2.3041,2.3055,2.3084,2.3097,2.3114,2.3131,2.3166,2.3188,2.3201,2.3222,2.3251,2.3276,2.3281,2.3291,2.3294,2.33,2.3274,2.3271,2.3268,2.3261,2.3297,2.3297,2.3325,2.3325,2.3325]},{"header":{"parameterUnit":"m.s-1","parameterCategory":1,"la1":30.2991,"la2":30.254,"lo1":-89.0895,"lo2":-89.0444,"dy":0.0017,"dx":0.0017,"nx":28,"ny":28,"refTime":"2025-06-05T09:00:00:Z","depth":0,"parameterNumber":3,"parameterNumberName":"V-component_of_WINDS"},"data":[0,0,0,0,0,0,0,0,0,0,0,0,0,0,0,0,0,0,0,0,0,0,0,0,0,0,0,0,0,0,0,0,0,0,0,0,0,0,0,0,0,0,0,0,0,0,0,0,0,0,0,0,0,0,0,0,0,0,2.2928,2.2928,0,2.2929,2.2929,2.2929,2.2924,2.2924,2.2923,2.2923,2.2924,2.2924,2.2924,0,0,0,0,0,0,0,0,0,0,0,0,0,2.2921,2.2921,2.2928,2.2928,2.2928,2.2929,2.2929,2.2929,2.2924,2.2924,2.2923,2.2923,2.2924,2.2924,2.2924,0,0,0,0,0,0,0,0,0,0,0,0,0,2.2923,2.2921,2.2928,2.2926,2.2925,2.2929,2.2929,2.2929,2.2924,2.2924,2.2923,2.2923,2.2924,2.2924,2.2924,2.2931,0,0,2.2925,2.2925,0,0,0,0,0,0,0,0,2.2923,2.2924,2.2926,2.2926,2.2926,2.2926,2.2927,2.293,2.2924,2.2924,2.2923,2.2923,2.2925,2.2925,2.2926,2.2931,2.2931,2.2925,2.2925,2.2926,2.2926,0,0,0,0,0,0,0,2.2923,2.2923,2.2929,2.2926,2.2926,2.2924,2.2924,2.2928,2.2926,2.2924,2.2924,2.2924,2.2925,2.2926,2.2926,2.2931,2.2925,2.2925,2.2926,2.2926,2.2941,2.2941,0,0,0,0,0,0,2.2923,2.2923,2.2929,2.2929,2.2924,2.2925,2.2925,2.2926,2.2926,2.2926,2.2924,2.2924,2.2925,2.2926,2.2926,2.2933,2.2925,2.2926,2.2926,2.294,2.2941,2.2941,0,0,0,0,0,0,2.2923,2.2924,2.2929,2.2926,2.2926,2.2925,2.2927,2.2926,2.2927,2.2926,2.2926,2.2926,2.2925,2.2925,2.2929,2.2933,2.2926,2.2926,2.294,2.294,2.2941,2.2947,0,0,0,0,0,0,2.2923,2.2924,2.2926,2.2926,2.2927,2.2932,2.2927,2.2927,2.2928,2.2927,2.2927,2.2927,2.2925,2.2929,2.293,2.2933,2.2926,2.294,2.294,2.2941,2.2946,2.2947,2.2948,0,0,0,0,0,2.2923,2.2928,2.2926,2.2927,2.293,2.2933,2.2933,2.2931,2.2928,2.293,2.2929,2.2927,2.2932,2.293,2.293,2.2933,2.2939,2.294,2.2941,2.2946,2.2947,2.2948,0,0,0,0,0,0,2.2929,2.2928,2.2926,2.2932,2.2932,2.2932,2.2935,2.2932,2.2934,2.2933,2.293,2.293,2.2935,2.2935,2.2932,2.2939,2.2935,2.2936,2.2939,2.294,2.2941,2.2941,2.2926,0,0,0,0,0,2.2931,2.2933,2.2932,2.2937,2.2938,2.2936,2.2937,2.2936,2.2936,2.2936,2.2936,2.2936,2.2938,2.2939,2.2941,2.2946,2.2946,2.2949,2.295,2.2951,2.2951,2.2953,2.2955,2.2943,2.2943,2.2943,0,0,2.2935,2.2934,2.2936,2.2938,2.2939,2.2941,2.2936,2.2939,2.2941,2.2937,2.294,2.294,2.294,2.2945,2.2947,2.2945,2.2954,2.2951,2.2952,2.2952,2.2954,2.2955,2.2956,2.2943,2.2943,2.2943,0,0,2.2943,2.2943,2.2947,2.2948,2.2948,2.2947,2.2948,2.2948,2.2947,2.2951,2.2948,2.295,2.2953,2.2953,2.2954,2.2962,2.2959,2.2963,2.2967,2.297,2.2971,2.2971,2.2974,2.2975,2.2963,2.2963,2.2963,0,2.2948,2.2951,2.2949,2.2952,2.2953,2.295,2.2953,2.2954,2.2955,2.2955,2.2953,2.2957,2.2957,2.2961,2.2963,2.2964,2.2965,2.2962,2.2971,2.2971,2.2972,2.2974,2.2975,2.2964,2.2964,2.2964,2.2964,0,2.2957,2.2959,2.2962,2.2963,2.2965,2.2968,2.2966,2.2968,2.2966,2.2965,2.2969,2.2969,2.297,2.2971,2.2969,2.2975,2.2974,2.2971,2.2967,2.2974,2.2976,2.2977,2.2964,2.2964,2.2964,2.2964,0,0,2.2969,2.2968,2.2969,2.297,2.297,2.2972,2.2975,2.2976,2.2977,2.2978,2.298,2.2983,2.2981,2.2981,2.298,2.2982,2.2988,2.2979,2.2979,2.298,2.2993,2.2995,2.2996,2.2986,2.2986,2.2986,2.2993,0,2.2976,2.2981,2.298,2.2985,2.2987,2.2983,2.2986,2.2986,2.2986,2.2987,2.2986,2.2988,2.2985,2.2985,2.2988,2.2987,2.299,2.2986,2.2988,2.2988,2.2987,2.2997,2.2998,2.3005,2.2994,2.2994,2.2994,0,2.2986,2.2987,2.2992,2.2992,2.2992,2.2995,2.2996,2.2997,2.2997,2.2997,2.2997,2.2995,2.2998,2.2994,2.2998,2.2995,2.2996,2.2995,2.2996,2.2995,2.2991,2.2996,2.3007,2.3007,2.2995,2.2995,2.2995,0,2.2993,2.2996,2.2999,2.2999,2.2999,2.3001,2.3001,2.3001,2.3002,2.3002,2.3003,2.3004,2.3005,2.3005,2.3004,2.3001,2.3007,2.3004,2.3006,2.3006,2.3007,2.3007,2.3017,2.3009,2.3009,2.3009,2.3009,0,2.3001,2.3004,2.3002,2.3004,2.3008,2.3006,2.3009,2.3009,2.3009,2.301,2.3008,2.301,2.3007,2.3009,2.3007,2.301,2.3011,2.301,2.3009,2.301,2.301,2.301,2.3009,2.3009,2.3009,2.3009,2.3009,0,2.3009,2.3008,2.3012,2.3011,2.3011,2.3014,2.3013,2.3015,2.3014,2.3016,2.3016,2.3015,2.3017,2.3015,2.3017,2.3016,2.3019,2.3018,2.3019,2.3019,2.3021,2.3021,2.3031,2.3032,2.3024,2.3024,2.3024,0,2.3015,2.3017,2.3017,2.3018,2.3018,2.3019,2.302,2.3018,2.3019,2.302,2.3021,2.3022,2.3023,2.3026,2.3025,2.3026,2.3025,2.3028,2.3025,2.3025,2.3024,2.3024,2.3024,2.3029,2.3029,2.3029,2.3029,0,2.3023,2.3023,2.3024,2.3025,2.3026,2.3027,2.3027,2.3028,2.3026,2.3027,2.3029,2.3029,2.3031,2.3032,2.3033,2.3032,2.303,2.303,2.3031,2.3031,2.3031,2.303,2.302,2.303,2.303,2.303,2.303,2.303,2.303,2.3031,2.3031,2.3033,2.3033,2.3034,2.3035,2.3034,2.3036,2.3037,2.3036,2.3037,2.3037,2.3038,2.3038,2.3039,2.3038,2.3039,2.3039,2.3039,2.3039,2.3031,2.3039,2.3039,2.3039,2.3039,2.3039,0,2.3038,2.3038,2.3039,2.304,2.3041,2.3039,2.3039,2.304,2.3042,2.3042,2.3043,2.3045,2.3046,2.3045,2.3046,2.3047,2.3046,2.3047,2.3047,2.3047,2.3041,2.304,2.3048,2.3048,2.3048,2.3048,2.3048,2.3048,2.3042,2.3045,2.3044,2.3047,2.3047,2.3048,2.3049,2.3049,2.3049,2.3051,2.3052,2.3051,2.3051,2.3052,2.3053,2.3053,2.3053,2.3054,2.3054,2.3048,2.3047,2.3046,2.3045,2.3054,2.3054,2.3059,2.3059,2.3059]}]]